Погода в Морозовске

Погода в Морозовске : погода сейчас, прогноз погоды и архив. Всё, что Вы хотите узнать о погоде в Морозовске!

Хотите узнать прогноз погоды в Морозовске? Тогда Вам сюда: Погода в Морозовске

Поиск расширенной информации на нашем сайте:

Другие новости

Новости СМИ2

Главная страница сайта

Новости сайта

03.07.2017

Напоминаем, что на нашем специализированном сайте Метеоцентр.Азия вы можете получить высокодетализированные автоматические прогнозы погоды по пунктам России, СНГ и мира в авиационном формате (включающие направление и скорость ветра, видимость, явления погоды, количество и форму облачности, нижнюю и верхнюю границу облачности).


Погода в Морозовске - сегодня

Время (UTC), дата Ветер
(°,м/с) 
Видим.   Явления Облачность Т
(°С)
Тd
(°С)
f(%) Тe
(°С)
Pmin
(гПа)
dP
(гПа)
Po
(мм)
O2
(г/м3)
Тmin Tmax R s Состояние
почвы
00 18.08.17 070 (В) 20000 м    ясно 
+19.9 +5 38 +21  1018.3  0.6  756  283           
03 18.08.17 080 (В) 20000 м    ясно 
+19.8 +3.3 34 +21  1019.1  0.8  756  284  +17.9        сухая 
06 18.08.17 060 (СВ) 20000 м    ясно 
+29.4 +3.3 19 +29  1019.3  0.5  757  275           
09 18.08.17 090 (В) 6-10{11}  20000 м    3/0 средняя 
[Ac trans]
+33.9 +1.5 13 +34  1018.5  -0.6  756  271           
12 18.08.17 100 (В) 4{13}  20000 м    4/0 средняя 
[Ac trans]
+35.1 +1.1 12 +35  1017.7  -0.8  756  270           
15 18.08.17 080 (В) 4{14}  20000 м    3/0 средняя 
[Ac trans]
+32.7 +0.8 13 +33  1017.4  -0.3  755  272    +35.1       
18 18.08.17 060 (СВ) 6-10{10}  20000 м    3/0 средняя 
[Ac trans]
+27.5 +5.3 24 +28  1018.9  1.3  756  276           
21 18.08.17 070 (В) 4{12}  20000 м    3/0 средняя 
[Ac trans]
+23.6 +8.2 37 +24  1019.6  0.5  757  279           
00 19.08.17 070 (В) 20000 м    ясно 
+21.2 +8.1 43 +21  1019.4  -0.2  757  282           
03 19.08.17 060 (СВ) 20000 м    4/0 средняя 
[Ac trans]
+20.7 +8.1 44 +21  1020.2  0.8  757  282  +19.8        сухая 
06 19.08.17 060 (СВ) 5{10}  20000 м    8/0 средняя 
[Ac trans]
+25.2 +7.4 32 +25  1020.8  0.7  758  278           
09 19.08.17 070 (В) 6-10{10}  20000 м    4/0 средняя, верхняя 
[Ac trans|Cc]
+32.8 +4 16 +33  1019.8  -0.8  757  272           
12 19.08.17 060 (СВ) 5{11}  20000 м    8/8 600 м верхняя 
[Cu med, cong|Ci fib]
+33.7 +3.5 15 +34  1018.5  -1.2  756  271           
15 19.08.17 010 (С) 20000 м  в посл. час ливневой дождь  8/6 600 м кучево-дожд., средняя, верхняя 
[Cb calv|Ac trans|Ci fib]
+29.7 +6.6 23 +30  1018.7  756  274    +34.8  0.0     
18 19.08.17 060 (СВ) 20000 м  {ливн. осадки}  4/0 средняя 
[Ac trans]
+27.1 +5.8 26 +27  1019.2  0.5  757  276           
21 19.08.17 080 (В) 20000 м    ясно 
+23.7 +5.5 31 +24  1019.6  0.3  757  280           
00 20.08.17 070 (В) 20000 м    ясно 
+20.4 +5.3 37 +20  1019.6  -0.2  757  283           
03 20.08.17 070 (В) 20000 м    8/0 средняя, верхняя 
[Ac cast|Ci fib]
+18.9 +6.3 44 +20  1019.8  0.2  757  284  +18.1        сухая 
06 20.08.17 060 (СВ) 20000 м    8/0 средняя, верхняя 
[Ac trans|Ci fib]
+26.5 +7.8 31 +27  1019.8  0.2  757  277           
09 20.08.17 120 (ЮВ) 6-10{10}  20000 м    5/0 верхняя 
[Cs]
+33.8 -0.5 11 +34  1018.5  -1  756  271           
12 20.08.17 120 (ЮВ) 7-12{13}  20000 м    9/8 600 м кучево-дожд., средняя, верхняя 
[Cb calv|Ac trans|Ci fib]
+33 +0.8 13 +33  1017.5  -1  755  271           
15 20.08.17 070 (В) 6{13}  20000 м    9/8 600 м кучево-дожд., средняя, верхняя 
[Cb calv|Ac trans|Ci fib]
+30.9 +1.9 16 +31  1017  -0.5  755  273    +34.5       
18 20.08.17 110 (В) 6-11{11}  20000 м    8/4 600 м кучево-дожд., средняя 
[Cb calv|Ac trans]
+27.6 +5.1 24 +28  1018.1  756  276           
21 20.08.17 090 (В) 4{14}  20000 м    9/6 600 м кучево-дожд., средняя 
[Cb calv|Ac trans]
+26 +6 28 +26  1018.1  0.1  756  277           
00 21.08.17 110 (В) 20000 м    8/0 средняя 
[Ac trans]
+22.1 +6.9 37 +22  1018.7  0.5  756  281           
Время (UTC), дата Ветер
(°,м/с) 
Видим.   Явления Облачность Т
(°С)
Тd
(°С)
f(%) Тe
(°С)
Pmin
(гПа)
dP
(гПа)
Po
(мм)
O2
(г/м3)
Тmin Tmax R s Состояние
почвы

Для получения пояснительной информации подведите курсор к названию столбца.

ПОГОДА в Морозовске - архив

Всё, что Вы хотите узнать о погоде в Морозовске - удобно и подробно!

Выберите нужную дату (начиная с 1 января 2015* года) и нажмите кнопку "Найти".
Будут отображены архивные сводки погоды по пункту Морозовск, начиная с указанной даты.


Отображать данные в формате CSV (для использования в таблицах Excel)


Внимание! Наш архив погоды предназначен исключительно для личного некоммерческого использования в познавательных целях. Если Вам необходимы официальные справки о состоянии погоды (для производственных, юридических, коммерческих и т.п. целей), обращайтесь в органы Росгидромета.

*Примечание: данная дата относится к архиву по метеостанциям СССР (Россия, СНГ, Балтия).
Архив по метеостанциям Зарубежной Европы и Азии (кроме Китая) хранится 10 дней, по другим регионам земного шара (Китай, Африка, Америка, Австралия, Океания) - 1 день.

Морозовск - район местоположения метеостанции


Название, широта, долгота, высота метеостанции:
Морозовск 48.3°ш. 41.9°д. 90 м над ур. моря [Российская Федерация]

Дополнительная информация

В oтличие oт бoльшинства пoгoдных сайтoв мы публикуем пoдрoбную метеoинфoрмацию в детальнoм прoфессиoнальнoм фoрмате.

Характеристики температуры и влажнoсти вoздуха измеряются на высoте 2 м в тени вдали oт зданий и деревьев.
Скoрoсть ветра измеряется на высoте 10 м (на урoвне рoста челoвека скoрoсть ветра ниже в 1.5-2 раза). Если метеoстанция нахoдится в гoрoде или в лесу, тo скoрoсть ветра занижена на 2-4 м/с пo сравнению с oткрытым местoм. Скoрoсть ветра над акватoриями крупных рек и oзёр, а также на вершинах хoлмoв на 2-5 м/с выше, чем в oбычных услoвиях.
Атмoсфернoе давление в разных тoчках местнoсти мoжет значительнo oтличаться oт давления на метеoстанции, в зависимoсти oт услoвий рельефа (при пoдъёме на 10 м давление пoнижается примернo на 1 мм рт.ст.).